GFSGL_925_thetae_090.txt.gz
Theta_e
359 359 357 355 352 351 351 354 351 352 352 351 348 349 350 349 347 347 345 342 344 344 345 345 346 345 344 344 344 346 346 344 346 344 343 342 339 339 339 340 339 339 338
360 359 357 354 352 350 353 355 352 353 352 352 347 350 350 349 347 346 346 344 343 344 344 344 344 344 344 343 342 343 342 343 342 343 342 341 341 340 339 338 338 337 337
354 359 355 353 352 350 353 354 353 353 352 352 347 349 348 349 348 348 348 347 347 346 345 345 345 344 344 344 343 344 345 344 343 343 342 339 339 336 337 336 335 336 336
339 354 354 353 352 351 354 354 354 353 353 352 350 349 348 348 348 348 348 347 346 345 345 344 344 343 344 344 343 344 344 343 343 343 343 341 339 335 336 334 332 332 333
339 337 354 354 353 353 354 355 355 354 354 354 351 351 349 347 347 347 346 346 346 345 344 345 344 343 342 341 341 343 343 344 342 342 342 340 337 334 333 331 330 330 330
331 351 352 353 355 355 355 355 355 355 354 354 353 350 349 347 347 345 344 345 345 345 344 344 343 342 339 337 338 337 340 342 341 338 338 340 340 335 333 331 328 327 328
345 348 348 349 353 354 353 351 348 347 350 353 353 352 350 348 348 346 344 343 344 344 344 344 343 341 341 342 338 337 334 332 338 341 341 341 341 340 333 330 329 330 333
340 341 343 344 347 347 346 346 345 344 347 349 350 352 349 350 349 347 346 343 343 344 344 344 344 343 343 342 341 340 340 339 339 339 341 340 340 340 337 333 331 332 331
339 339 339 341 343 344 341 342 344 343 346 347 349 351 351 347 349 343 345 343 343 344 344 344 343 344 343 339 340 340 341 340 338 338 337 336 335 337 338 333 330 329 326
339 341 342 343 345 345 344 343 338 346 345 346 348 347 345 347 344 344 344 344 344 344 345 345 343 343 342 340 338 340 340 340 338 336 334 333 333 333 334 335 331 331 330
334 338 340 341 341 344 345 345 344 344 343 342 343 343 345 344 343 340 338 336 340 343 344 343 343 341 340 339 336 340 340 339 338 338 337 336 336 335 334 333 334 334 333
332 333 336 338 339 338 340 341 340 339 337 337 337 337 338 339 339 339 337 334 336 338 341 342 342 342 336 336 334 338 337 336 337 337 337 335 335 335 335 335 335 335 336
329 330 331 332 334 337 338 338 339 339 339 340 340 342 342 344 343 341 337 336 334 333 338 341 341 341 336 335 334 335 333 334 335 336 335 335 335 334 335 335 334 334 334
330 330 328 329 329 332 331 335 337 337 337 336 336 336 336 335 336 337 336 334 332 329 330 337 340 338 334 335 333 333 333 334 335 334 334 335 335 334 335 334 334 333 333
325 329 330 330 329 329 331 333 331 332 333 334 334 335 334 336 336 336 338 334 333 332 332 334 334 332 334 335 334 333 333 333 333 333 334 334 334 333 334 334 333 332 331
324 324 327 328 330 331 331 329 330 330 330 329 328 328 329 330 331 332 332 331 333 332 332 330 330 333 334 333 332 332 332 331 330 330 330 330 330 330 331 330 330 330 329
323 323 323 326 327 329 331 331 330 329 328 327 324 323 323 324 329 331 331 329 328 329 331 331 332 333 334 333 333 332 331 330 331 330 330 329 329 328 325 327 328 329 329
323 321 322 324 326 328 328 330 329 329 329 327 325 321 320 324 329 332 330 325 325 328 331 332 333 334 333 332 332 332 330 328 330 329 328 328 327 326 325 325 324 324 322
322 322 322 321 325 326 328 330 328 328 327 325 323 321 320 322 329 331 325 325 325 329 329 330 331 331 330 330 329 328 327 327 327 327 326 325 325 325 325 324 323 322 322
322 321 320 321 323 327 329 330 328 327 326 326 327 323 323 322 319 319 321 324 327 329 330 329 328 328 327 327 326 325 323 323 323 323 324 324 324 323 322 321 321 320 321
321 322 320 321 323 325 328 330 329 326 325 327 326 323 323 323 324 324 324 324 324 324 323 323 324 324 324 323 323 323 323 322 321 321 321 320 320 320 319 319 318 318 317
321 322 322 323 323 324 327 329 329 327 325 326 323 322 323 322 322 320 321 321 323 323 322 322 322 322 321 321 320 320 320 320 320 320 320 319 319 318 316 315 315 314 313
321 322 323 324 325 326 327 328 329 327 325 322 322 321 320 322 319 321 320 321 322 322 322 321 320 320 320 319 319 320 320 319 319 318 316 314 312 311 311 310 310 310 310
322 323 323 324 325 326 326 326 327 325 324 321 319 318 317 317 317 318 320 320 321 320 320 319 318 316 317 316 315 316 316 315 315 314 312 311 310 310 310 310 309 309 308
320 322 322 323 324 325 325 324 324 324 321 320 319 319 317 315 313 313 314 320 317 315 314 313 316 313 310 309 309 309 311 312 312 311 310 310 309 310 309 308 308 308 308
319 319 320 321 321 322 323 324 324 323 323 321 322 318 317 314 312 312 313 313 311 311 311 309 309 306 305 304 302 303 305 305 305 307 307 308 308 308 308 308 308 306 304

GFSGL_925_thetae_093.txt.gz
Theta_e
364 363 363 360 358 353 351 353 353 351 352 352 350 350 351 351 350 349 347 346 347 347 347 348 348 348 347 346 347 345 347 347 348 346 345 345 344 343 343 343 342 342 339
360 361 361 360 357 354 352 353 353 352 352 352 351 349 349 348 349 347 348 345 345 346 346 346 346 347 348 347 346 346 347 346 347 346 346 344 344 343 342 341 340 341 340
349 354 352 343 355 354 352 352 354 352 352 352 351 349 348 348 349 347 347 347 346 346 346 346 346 346 346 345 344 344 344 345 346 345 345 344 341 341 338 339 338 338 337
344 345 339 341 339 344 353 353 353 353 353 353 352 349 349 348 347 348 348 348 348 346 345 346 344 344 345 344 346 347 347 347 346 346 345 343 342 341 338 336 335 334 334
343 340 337 336 344 347 351 352 353 353 352 352 352 350 349 348 346 347 346 347 347 347 346 345 345 344 344 344 344 344 344 345 343 343 345 344 343 340 338 335 334 333 332
338 342 338 339 339 348 350 352 352 353 352 352 353 352 351 348 346 346 347 347 345 346 347 346 344 344 343 342 338 339 344 345 343 343 342 341 342 340 337 336 332 329 329
348 344 340 336 337 338 351 352 352 352 353 353 355 354 352 350 348 347 346 346 345 345 345 344 344 343 344 344 339 337 338 338 338 342 341 342 342 343 338 333 331 330 331
344 345 344 345 345 346 347 353 353 353 352 351 352 353 354 352 350 349 347 347 347 345 345 344 344 344 344 343 343 342 340 339 335 334 340 342 343 344 340 335 332 331 333
341 342 342 342 345 346 349 349 349 348 349 348 350 352 353 354 351 348 347 347 347 347 345 345 346 346 345 343 342 343 343 342 341 340 341 340 339 339 341 336 333 331 327
342 342 343 344 344 344 345 346 343 345 346 346 347 350 352 354 353 348 347 346 344 344 345 346 346 345 345 344 343 342 343 343 341 339 339 335 333 335 338 337 333 332 330
336 340 342 343 344 344 344 346 346 346 346 348 348 349 349 350 349 348 345 345 344 345 343 344 345 346 344 343 342 341 342 341 340 340 339 337 337 337 336 337 335 334 332
334 334 335 337 339 341 342 341 343 343 344 343 344 345 346 345 346 345 344 342 342 342 342 343 344 345 345 343 341 340 341 340 340 339 339 339 338 337 336 337 337 336 336
333 333 333 333 334 337 338 339 341 341 344 342 342 342 342 343 344 344 343 342 341 340 339 339 339 342 342 343 340 338 339 339 338 339 338 338 337 336 336 336 335 337 336
329 331 333 333 331 333 334 336 337 337 339 339 338 337 337 338 337 337 338 341 340 337 335 335 334 335 342 342 337 336 337 337 336 337 336 337 337 335 335 334 335 335 335
328 327 330 329 333 333 332 332 332 334 334 333 335 336 337 337 336 333 333 334 338 337 336 335 334 336 336 337 337 335 337 336 336 336 335 336 338 336 336 336 335 334 335
327 325 326 325 327 330 331 332 333 331 330 329 331 330 329 328 331 332 332 331 332 332 331 334 335 335 338 337 336 335 335 334 334 335 334 335 336 336 337 336 336 333 333
326 326 323 323 325 327 328 329 332 332 331 330 329 327 325 324 324 326 330 331 330 330 328 333 334 334 336 336 335 335 335 333 333 333 333 333 332 332 331 332 332 331 331
324 324 324 324 323 324 327 329 331 331 330 330 329 326 324 323 322 325 328 326 327 326 326 333 334 333 334 335 334 334 333 332 333 332 332 331 331 330 330 330 331 330 329
324 324 324 322 322 323 325 330 331 330 330 330 330 328 325 323 321 324 327 326 327 326 328 332 333 333 333 333 333 332 331 330 330 330 329 329 329 328 327 326 324 324 325
322 322 322 323 322 323 326 330 331 330 330 329 329 328 324 325 323 321 320 324 325 327 329 331 332 331 331 330 329 329 328 327 327 327 326 326 326 326 325 324 324 323 323
321 322 322 322 323 324 323 325 331 331 330 328 327 325 323 323 322 322 324 325 326 327 329 329 329 329 328 327 326 326 325 325 325 325 325 324 324 325 322 321 322 322 322
321 322 323 324 324 324 325 325 329 330 329 328 327 325 323 321 321 321 322 322 322 322 322 323 323 324 324 324 324 324 323 322 322 322 322 321 320 320 320 320 320 320 319
321 323 324 324 325 325 326 327 329 329 328 327 324 323 321 320 320 319 320 320 321 322 323 324 323 322 322 321 320 320 320 320 320 320 320 320 320 319 318 318 317 315 314
320 322 322 323 325 325 326 326 326 327 326 325 322 318 316 318 319 320 320 320 320 320 320 320 320 319 319 320 320 321 321 320 319 319 317 315 313 313 312 312 311 311 312
320 319 320 320 321 322 325 325 325 323 323 324 323 322 317 316 317 319 318 317 319 320 318 317 318 319 319 318 318 317 317 317 316 314 313 312 311 311 311 311 311 311 310
318 317 318 319 319 319 321 323 325 325 325 324 324 321 317 315 314 314 315 315 315 314 313 314 313 313 313 313 312 314 314 313 312 312 311 311 311 311 310 310 310 309 310

GFSGL_925_thetae_096.txt.gz
Theta_e
364 364 365 363 361 359 356 352 351 353 351 352 351 349 350 351 350 348 348 348 348 347 347 348 347 347 346 344 343 341 341 341 347 346 345 343 344 343 343 341 341 342 341
365 363 360 348 359 358 355 355 350 353 351 351 351 348 352 352 348 348 348 347 346 346 346 346 347 348 347 347 346 345 346 345 346 347 347 346 343 342 342 344 342 343 341
354 351 344 342 339 339 348 352 354 352 353 351 350 351 350 351 349 347 346 347 347 346 346 346 345 344 346 344 346 346 344 345 347 348 346 344 343 343 342 341 340 340 339
348 346 339 342 341 333 334 346 350 350 352 350 352 351 349 348 351 349 346 346 346 347 346 345 344 345 345 345 343 343 343 344 345 346 347 345 342 342 339 336 336 337 337
343 342 341 339 341 338 330 331 343 350 351 349 350 351 350 351 349 350 347 347 347 346 345 345 345 345 343 343 345 342 344 345 345 345 346 344 343 342 340 336 336 335 334
345 342 339 337 335 333 334 338 349 350 351 350 350 350 351 350 348 347 346 347 346 348 347 345 343 344 345 344 342 344 343 343 344 344 342 343 344 342 340 339 335 330 331
343 345 341 340 340 341 344 347 349 351 351 351 350 350 351 349 350 348 346 348 349 347 346 345 344 346 345 345 343 342 338 339 343 342 343 343 341 342 341 338 335 332 331
344 346 345 341 340 338 337 337 347 348 350 349 348 349 351 350 351 347 346 346 346 347 348 347 344 343 344 344 345 342 338 337 337 337 336 338 342 342 343 339 335 333 332
344 344 344 345 343 342 341 344 347 347 345 347 349 350 350 349 349 351 348 348 348 348 349 347 347 344 346 345 343 344 343 342 341 340 336 338 342 342 342 338 333 332 330
339 340 344 345 343 341 343 343 342 341 341 342 343 342 347 350 350 348 347 348 348 349 350 349 347 347 345 345 344 343 344 344 342 341 339 340 340 338 340 338 334 333 330
337 336 336 338 340 342 342 343 339 337 342 345 345 345 347 348 350 349 346 348 349 349 348 347 347 345 345 346 345 344 344 341 343 341 340 340 338 336 338 338 336 333 331
335 335 334 334 335 338 340 342 343 343 343 345 344 344 345 346 345 347 349 348 346 346 348 347 346 346 345 344 345 344 343 342 341 341 340 340 338 338 337 335 336 335 334
332 335 336 334 331 335 336 338 339 340 343 344 344 344 343 343 344 345 344 345 344 344 343 343 343 342 340 341 345 344 343 341 341 340 341 339 339 338 337 336 336 336 334
330 330 332 335 332 332 334 332 333 336 338 338 338 338 338 339 338 334 336 339 341 343 342 342 341 339 337 336 337 343 342 340 339 340 339 338 338 336 337 337 336 336 336
328 328 329 328 330 336 335 333 332 332 332 333 333 335 335 335 336 333 331 330 331 332 334 335 337 337 337 335 334 336 339 338 339 338 338 337 337 336 335 334 336 337 336
328 327 327 325 324 326 331 333 331 332 333 331 329 328 328 328 326 326 326 326 327 330 330 332 334 337 338 338 337 338 337 337 338 337 336 336 335 335 335 335 335 334 334
327 327 325 325 325 325 326 329 332 332 330 330 329 328 326 324 324 323 322 323 325 325 328 328 332 333 335 336 337 338 338 337 337 336 335 335 334 334 334 334 333 333 332
325 325 325 325 324 323 324 327 329 332 331 331 329 328 326 325 325 323 321 322 322 323 325 328 330 332 334 336 336 337 336 335 335 334 333 333 333 332 332 331 331 331 331
324 325 324 323 323 322 322 324 328 331 330 330 330 327 327 324 324 325 322 321 326 329 328 327 329 332 334 334 334 335 335 334 333 332 332 331 329 330 329 329 329 329 328
322 322 322 323 324 323 324 327 329 332 331 330 330 329 325 325 324 323 324 323 326 327 328 329 330 331 333 334 333 332 330 331 331 330 330 329 328 327 327 326 325 325 325
322 323 324 325 325 327 327 328 330 331 331 330 328 323 323 323 323 322 322 322 322 323 326 328 329 331 332 331 330 329 329 328 328 328 327 326 326 326 325 324 324 323 324
322 322 323 325 325 326 326 328 329 330 330 328 327 324 323 322 321 322 322 321 321 321 322 324 326 325 325 325 326 326 326 325 325 325 325 324 324 323 322 322 322 323 322
321 322 322 323 323 325 327 327 327 328 329 327 325 324 322 322 319 320 320 321 321 322 323 323 323 323 324 324 323 323 324 324 323 323 322 322 321 321 320 320 320 320 320
318 320 320 322 321 323 324 325 326 327 326 325 324 321 319 318 319 319 319 319 321 321 321 321 320 320 320 320 320 321 320 319 319 320 321 320 319 319 320 320 319 318 314
318 319 318 319 319 319 320 324 326 326 325 325 324 322 320 317 318 318 319 319 320 320 319 321 319 319 319 319 319 319 319 319 319 318 317 315 315 315 312 312 312 312 311
319 319 319 319 318 318 318 322 323 325 325 324 324 322 319 317 316 316 316 318 318 316 316 316 318 319 318 317 317 318 318 317 316 315 313 312 310 311 311 311 311 310 309

GFSGL_925_thetae_099.txt.gz
Theta_e
360 360 360 358 361 353 350 352 353 350 352 353 352 349 351 350 351 351 349 346 346 347 346 347 347 346 345 345 344 342 341 341 341 341 342 344 343 344 343 343 343 342 342
361 360 357 357 351 343 341 336 346 351 352 351 350 350 350 351 349 349 348 347 348 347 345 345 347 346 345 346 345 343 342 340 341 342 345 344 344 344 343 342 342 342 341
356 351 348 343 341 337 341 340 339 344 350 351 351 350 349 350 350 348 347 345 348 346 346 346 346 346 346 346 344 345 344 344 344 345 345 345 344 343 342 343 340 342 340
345 343 344 342 346 345 341 337 337 332 344 350 350 349 348 352 351 349 346 347 346 347 346 345 345 344 343 345 344 343 344 344 343 344 343 343 344 343 342 339 337 338 339
343 341 341 342 343 346 343 342 340 333 341 349 352 350 350 349 349 350 349 347 346 345 345 346 344 343 344 345 344 344 342 343 344 344 344 344 343 341 339 337 336 335 335
342 342 341 340 340 338 338 337 335 341 346 348 351 350 350 351 349 350 350 349 346 346 346 345 344 344 344 345 343 342 343 342 343 344 343 343 343 342 341 339 335 333 332
346 345 342 338 337 336 335 336 337 336 342 348 349 348 348 349 349 350 349 348 347 347 346 346 346 344 342 344 344 343 343 343 341 340 342 342 342 341 341 339 337 335 331
344 344 342 339 338 336 337 336 336 341 344 345 347 348 348 348 348 348 348 348 349 347 346 347 345 344 343 345 344 343 343 342 339 339 342 341 340 342 340 341 339 337 333
340 342 343 343 342 341 338 339 338 338 344 345 345 347 346 346 348 348 348 347 348 346 347 347 347 346 343 344 344 344 344 343 340 337 338 337 336 337 342 342 337 333 332
337 337 341 342 342 341 341 340 339 340 341 344 343 343 344 341 337 339 344 345 346 345 344 344 341 347 347 344 345 344 344 343 342 341 340 339 337 341 341 341 339 332 331
334 333 334 337 339 342 341 341 339 339 338 338 338 339 336 338 341 346 346 346 342 341 341 346 346 346 347 347 345 345 344 343 343 342 341 340 339 340 340 340 339 336 331
334 335 333 331 334 336 337 339 341 342 341 340 341 342 342 341 341 343 343 344 344 346 346 347 346 344 347 347 347 345 345 344 343 342 341 340 339 338 336 338 337 337 335
328 329 334 335 331 332 335 336 336 337 339 340 338 338 340 340 338 339 341 342 342 343 345 344 344 344 343 342 341 342 343 344 343 342 341 341 340 339 337 336 337 337 336
327 328 328 329 335 332 331 331 331 332 332 332 333 334 335 335 335 334 334 333 334 337 339 342 344 343 341 341 338 339 339 341 342 341 340 340 339 339 338 337 337 337 336
327 327 326 325 324 327 335 332 330 332 333 332 330 330 329 330 331 330 329 328 329 330 331 332 336 337 339 338 337 336 335 336 337 340 340 339 339 338 338 338 337 337 336
327 326 326 326 325 326 326 331 332 331 332 331 331 329 328 326 325 324 324 323 323 322 321 326 330 333 335 336 336 336 335 334 334 338 339 338 337 337 337 337 337 336 335
325 325 325 325 325 323 323 326 332 331 331 330 330 329 327 326 324 324 325 324 322 320 317 319 326 330 333 334 336 336 336 336 336 337 338 337 337 336 336 335 335 334 333
323 324 325 326 325 323 322 323 324 330 331 330 330 329 327 325 324 324 323 323 323 321 316 319 325 327 330 332 333 334 336 337 337 337 337 336 336 335 334 333 333 332 332
323 322 322 323 323 323 324 322 322 324 330 330 329 327 326 324 324 323 323 323 323 325 327 326 326 326 328 331 333 334 335 335 335 335 335 334 334 334 332 332 331 331 331
321 321 323 324 325 326 327 328 327 330 331 329 329 326 324 323 322 321 322 323 322 322 323 326 327 329 330 331 332 334 334 334 334 334 332 332 332 332 330 330 329 329 328
319 321 323 325 325 326 326 327 330 330 330 329 327 324 323 322 321 322 320 321 320 320 321 322 326 328 329 330 331 333 333 332 332 331 330 329 329 328 327 328 327 326 326
319 319 322 323 322 324 327 327 327 329 328 327 326 324 323 322 320 320 320 320 321 322 322 322 322 324 325 327 330 330 330 329 329 329 328 327 327 326 326 325 325 325 325
318 317 320 321 322 321 325 326 325 325 327 326 324 322 320 320 318 318 320 321 321 321 323 323 322 321 322 323 323 323 323 323 324 324 324 324 325 324 323 323 323 323 322
314 314 318 318 321 320 321 324 324 325 325 325 323 321 319 318 318 318 319 320 321 320 319 320 319 319 319 320 323 323 324 323 324 324 323 323 322 322 322 322 322 321 320
313 315 318 320 319 318 317 324 323 324 325 324 324 322 321 319 318 317 320 320 320 319 320 320 319 318 318 318 319 319 319 319 321 321 321 321 321 320 320 320 320 320 319
314 314 315 318 319 318 317 320 323 323 323 323 324 324 322 320 317 316 318 319 318 316 316 317 320 320 320 319 319 318 317 317 318 318 318 319 318 313 315 315 316 314 309

GFSGL_925_thetae_102.txt.gz
Theta_e
358 356 355 355 356 353 352 355 353 351 352 352 351 350 350 350 351 350 349 348 347 347 346 347 347 346 345 345 345 345 343 342 341 341 341 341 343 344 343 344 345 345 344
344 355 354 342 341 339 340 348 348 350 351 352 351 349 350 350 350 350 348 349 349 346 346 348 346 347 346 344 345 344 343 341 341 340 341 341 344 344 343 342 342 342 341
349 345 341 338 335 339 339 338 345 346 348 348 349 350 350 348 350 348 349 349 348 346 347 346 344 346 347 345 345 345 344 342 340 340 341 343 344 344 343 342 341 341 340
349 342 333 335 334 335 341 341 342 340 343 332 345 348 349 348 347 350 349 348 347 346 346 345 345 345 345 345 345 344 344 344 344 343 343 343 343 343 342 340 339 339 338
342 343 342 336 339 336 338 341 340 340 338 333 341 345 348 348 347 349 348 348 345 345 347 346 345 345 345 344 343 344 344 343 344 343 342 342 342 340 341 340 338 337 337
342 342 342 340 340 340 339 338 336 336 336 333 336 343 347 348 347 347 349 349 346 346 346 346 346 346 345 344 343 344 343 343 342 342 342 342 342 342 340 339 335 334 333
345 342 340 340 339 339 339 338 337 337 338 340 338 339 347 347 347 346 347 348 349 348 347 346 345 344 343 343 344 344 345 343 342 341 342 342 342 342 342 339 337 335 334
343 343 339 338 338 336 336 336 337 337 338 342 343 343 345 346 345 346 346 346 349 349 348 347 346 345 344 344 344 343 344 343 343 343 341 339 341 341 341 341 340 338 335
337 340 341 341 340 339 337 336 335 337 338 341 343 343 343 342 343 344 344 344 346 347 347 348 347 345 346 345 344 342 344 343 342 342 339 338 341 340 339 340 338 334 333
334 335 338 340 341 341 340 337 339 339 340 339 343 343 344 342 342 342 340 339 342 344 345 346 345 344 344 343 342 343 343 343 343 342 340 338 338 337 336 339 340 336 333
334 331 330 334 337 338 340 340 340 339 339 339 338 339 341 341 339 336 339 340 342 344 344 342 339 338 339 344 341 341 343 343 342 343 342 340 339 339 337 339 341 340 335
329 333 332 331 332 334 336 337 338 340 340 339 339 340 341 341 341 340 340 340 342 343 344 343 341 338 337 344 344 344 344 344 343 343 342 340 339 339 339 340 341 339 338
327 326 328 333 331 331 332 333 335 337 336 336 336 335 336 336 334 335 336 338 339 340 341 343 344 344 344 344 343 341 342 341 342 341 340 340 341 340 339 339 339 339 337
326 326 326 326 330 330 331 331 331 331 331 330 330 331 332 333 332 331 330 330 330 331 331 332 338 339 340 343 342 341 340 339 339 340 340 341 340 339 339 338 336 336 335
325 325 325 325 324 325 326 330 331 331 332 331 329 329 328 327 325 325 324 324 324 324 326 327 329 332 334 336 338 339 339 336 335 336 338 339 338 337 337 338 336 334 334
324 323 323 324 325 324 322 323 331 330 331 331 330 329 328 327 327 325 324 324 324 324 321 320 322 326 330 332 334 335 336 336 335 334 334 337 337 337 336 336 336 335 334
322 323 322 322 324 324 323 321 329 331 331 330 330 329 328 327 326 323 323 323 322 322 318 317 318 321 325 329 331 333 334 334 334 334 334 335 335 335 335 336 336 336 336
322 321 321 322 322 323 322 323 322 322 327 329 329 329 328 326 324 323 322 322 322 322 321 319 318 319 323 327 329 331 332 333 334 334 334 335 335 334 334 335 336 335 334
321 320 321 323 325 326 326 328 326 323 322 328 329 328 327 325 323 321 321 320 320 321 321 322 323 323 324 326 327 329 330 331 332 334 334 335 335 335 334 334 334 334 332
319 320 320 324 324 325 326 329 330 328 329 328 328 327 325 323 322 321 321 319 319 320 320 320 322 322 325 327 328 330 331 333 333 334 334 334 334 334 335 334 333 331 331
320 319 318 321 322 324 326 327 328 328 329 328 326 324 322 322 319 319 319 319 319 321 321 321 322 322 324 327 328 329 330 331 332 333 333 333 333 332 332 331 331 330 329
321 318 317 317 321 321 326 325 325 325 327 326 325 324 323 321 320 318 318 319 321 320 321 321 320 321 321 322 324 326 328 328 330 331 331 331 331 330 329 329 329 328 327
321 315 314 314 317 318 322 325 324 323 325 325 324 323 320 319 318 319 319 319 320 320 320 320 319 319 322 321 322 322 322 324 326 329 329 328 327 327 327 327 326 325 325
316 314 313 314 315 318 320 320 323 323 323 324 324 322 321 319 319 318 319 319 321 320 319 319 319 318 319 319 321 320 321 323 323 322 322 322 322 322 322 322 322 322 322
317 314 314 313 314 314 319 317 320 323 322 323 323 323 322 321 320 318 318 320 320 320 319 319 319 318 318 317 316 317 319 320 320 322 321 322 323 321 322 322 321 321 322
314 313 313 313 314 315 318 317 317 323 322 322 321 319 321 322 320 319 317 318 319 318 317 316 318 320 319 319 319 317 317 317 318 319 320 320 320 320 319 320 320 320 319

GFSGL_925_thetae_105.txt.gz
Theta_e
338 336 343 348 348 348 349 349 349 350 351 351 350 350 349 350 350 350 350 349 347 348 348 347 346 345 345 346 347 346 346 345 343 342 341 341 341 341 343 343 342 344 345
339 340 337 336 337 335 333 340 348 349 351 350 351 351 350 349 349 349 349 350 349 348 348 346 346 346 346 346 345 345 344 343 342 339 341 341 341 343 343 343 343 343 344
340 340 337 335 337 333 334 335 338 345 349 350 351 351 351 350 348 348 349 349 348 347 346 347 345 346 346 346 346 344 344 343 342 340 340 340 341 343 343 343 342 341 340
342 338 334 335 332 333 335 335 334 339 345 346 346 347 348 348 349 347 348 349 347 347 348 345 345 345 344 344 345 345 344 344 342 341 340 340 342 342 343 342 341 340 341
339 338 336 335 336 334 332 332 334 342 339 339 342 345 344 345 347 347 346 347 347 349 348 346 346 345 344 344 344 344 344 344 343 343 340 341 341 340 341 341 339 338 338
344 344 341 338 336 335 334 333 338 341 341 339 335 334 335 338 346 347 346 346 348 348 347 346 345 346 345 345 344 344 342 343 343 341 341 339 340 340 340 338 338 336 334
342 340 340 340 340 339 337 335 336 338 339 335 335 335 335 336 338 345 345 344 347 347 346 345 345 345 345 345 345 344 343 343 344 343 341 341 340 341 342 339 337 335 335
341 340 339 338 338 338 339 338 338 339 338 337 338 337 339 333 335 343 344 344 344 346 346 346 346 346 345 345 343 343 343 343 344 344 343 342 341 340 341 341 341 337 335
336 339 340 340 339 337 335 335 336 337 337 337 338 340 341 338 341 343 341 342 342 344 345 345 345 344 345 345 345 344 344 343 342 342 342 342 342 340 340 340 339 334 334
331 333 336 338 339 340 339 336 336 336 338 337 340 341 342 342 342 341 342 340 340 340 340 342 344 344 344 345 345 344 344 343 342 342 342 341 341 339 340 340 339 335 334
333 331 331 333 335 337 339 339 339 339 339 339 338 340 341 342 340 340 340 340 340 339 340 339 342 344 344 342 341 342 343 341 340 340 342 342 341 338 337 337 336 337 336
326 327 332 331 332 333 336 336 338 339 338 338 338 339 339 339 339 339 339 338 338 340 341 342 343 342 337 337 338 340 342 343 342 341 342 341 340 340 339 338 337 336 337
325 325 327 331 326 331 330 331 334 334 335 335 334 335 334 333 334 332 332 332 333 334 335 337 340 341 342 343 343 343 342 341 342 340 339 340 342 342 340 339 339 338 339
324 323 324 324 324 325 331 331 330 330 330 329 329 329 330 332 330 327 325 324 324 324 325 328 331 333 336 338 338 341 341 342 342 340 339 340 339 338 338 338 336 337 338
322 322 322 323 324 323 322 323 329 330 331 329 329 328 327 326 326 326 325 324 323 324 324 324 324 324 326 330 333 336 338 339 338 338 337 337 338 338 337 335 336 335 335
322 321 320 321 322 323 322 321 328 330 331 331 330 329 328 327 326 324 323 323 321 321 322 321 321 320 321 323 327 330 333 335 336 336 335 334 336 337 336 335 334 334 334
321 320 321 322 322 322 322 321 321 330 331 330 330 329 328 327 326 324 323 322 321 321 320 320 319 320 320 321 321 327 329 331 333 334 334 333 334 335 336 335 334 333 334
320 320 321 324 324 325 325 324 322 321 321 323 329 329 328 327 325 323 320 319 320 320 319 320 320 320 321 321 322 324 325 328 330 331 331 331 332 333 334 334 334 334 333
318 319 321 323 324 325 327 328 326 322 321 322 327 328 327 325 323 322 320 320 320 319 319 319 320 321 322 322 323 325 326 328 329 330 331 332 332 332 333 333 333 333 333
320 318 318 321 322 322 325 326 327 328 328 327 327 327 326 324 322 321 320 320 320 319 319 320 321 321 322 322 323 326 327 328 330 330 331 332 333 334 334 334 333 333 333
320 319 316 316 316 320 321 325 326 325 324 326 326 325 323 323 321 320 318 319 318 318 318 320 320 320 321 321 321 322 324 327 329 330 331 332 332 333 333 334 334 333 333
321 320 314 313 313 315 316 319 324 323 322 324 325 325 324 323 321 319 318 318 318 318 319 321 319 319 321 321 321 321 321 321 324 327 329 330 331 332 332 332 333 333 333
320 317 315 314 313 313 314 316 319 323 322 322 324 324 322 321 319 318 318 319 318 319 320 319 319 318 319 320 321 320 321 322 321 322 325 328 330 330 330 330 331 330 331
319 317 315 313 313 313 313 314 317 319 322 322 322 322 323 321 320 319 318 318 319 320 320 319 319 319 318 317 317 318 320 320 321 322 322 322 321 322 323 326 328 329 328
317 315 312 312 312 312 312 313 315 318 318 321 321 321 320 321 321 320 320 319 319 319 320 320 318 318 319 318 318 317 317 318 320 321 321 321 322 321 321 320 319 318 317
315 313 312 316 316 315 315 314 314 315 317 317 321 321 318 318 319 321 321 319 317 317 319 318 317 317 319 319 318 318 318 317 318 318 319 320 319 318 320 319 319 319 319

GFSGL_925_thetae_108.txt.gz
Theta_e
334 335 338 336 341 345 347 348 348 348 348 347 347 347 347 348 348 348 348 349 349 348 348 348 347 346 346 345 345 345 345 344 344 343 342 342 341 341 341 341 342 342 343
336 341 340 338 338 335 335 342 344 346 348 349 349 349 350 350 349 348 349 349 349 348 347 347 347 347 346 345 345 345 345 344 343 343 340 340 341 341 341 342 342 343 343
337 337 337 337 337 332 333 333 338 339 346 348 349 350 350 350 349 348 349 348 347 348 348 347 347 345 345 345 345 345 344 343 343 341 339 339 339 340 342 343 343 342 341
340 337 336 336 335 334 333 331 335 341 344 347 348 349 350 349 348 348 348 348 347 348 348 347 345 345 344 344 345 345 345 343 342 341 340 339 339 340 341 342 341 340 339
340 338 337 335 335 334 336 335 335 338 342 339 346 345 344 346 347 347 346 347 347 348 348 346 346 345 344 344 344 343 344 343 346 341 340 339 339 340 339 340 340 340 340
338 337 336 335 334 334 333 333 334 336 341 341 340 340 342 344 345 344 345 346 346 348 346 346 347 346 345 345 345 343 343 344 342 342 340 339 340 340 340 339 339 338 336
339 339 340 336 333 335 334 334 334 336 339 339 338 335 335 336 338 341 339 341 343 345 345 345 345 346 344 344 344 345 344 344 343 342 341 341 341 341 340 338 339 337 337
338 339 337 338 337 336 337 336 337 336 337 337 339 338 336 335 335 336 337 340 342 344 343 344 344 345 345 344 344 344 344 344 343 342 343 343 343 341 341 340 340 338 337
331 334 337 338 338 337 335 335 336 336 337 337 338 339 338 338 338 337 334 338 341 340 341 342 344 344 343 343 344 344 344 343 342 342 342 342 342 342 341 339 338 335 335
330 330 334 336 338 338 338 336 335 336 336 337 337 337 338 340 341 340 340 341 341 340 339 339 338 338 340 341 342 344 343 344 343 342 342 341 341 341 341 340 339 337 336
326 331 331 332 334 336 338 336 336 339 339 339 338 339 340 341 342 341 339 340 340 339 338 337 335 334 335 339 341 341 342 342 341 342 341 340 341 341 341 340 339 339 338
324 329 329 325 330 331 334 337 338 337 337 337 337 335 335 339 340 338 336 337 338 337 337 337 338 336 336 340 339 339 339 339 340 341 340 339 339 340 341 340 339 338 338
323 323 323 323 327 330 330 331 332 334 333 333 334 331 330 331 332 334 334 335 335 336 335 333 335 337 337 339 340 340 339 340 340 339 339 340 340 341 341 340 339 337 336
322 321 323 323 322 321 322 329 330 329 328 328 329 330 331 329 325 324 324 324 324 324 323 324 324 324 328 329 331 335 338 339 337 337 338 340 340 339 339 339 337 336 333
320 320 321 322 322 322 321 327 327 330 330 328 328 327 326 325 324 324 323 323 323 322 323 323 323 323 324 324 324 326 329 333 334 335 335 336 338 338 337 337 337 335 334
320 320 321 321 321 322 321 324 327 329 330 330 329 328 327 326 325 324 323 322 321 321 321 320 320 321 321 322 322 323 323 328 330 332 334 335 336 337 337 336 335 335 335
319 319 321 321 323 324 324 320 321 330 330 330 329 329 328 327 326 325 323 321 320 319 319 319 318 319 319 319 320 321 322 324 324 328 330 332 333 334 335 336 335 335 335
318 319 322 323 323 324 327 326 323 320 320 320 325 328 328 327 325 325 322 320 320 319 319 319 319 320 320 320 321 321 322 323 325 326 327 329 331 332 333 334 334 333 333
318 317 320 321 320 323 325 326 326 325 323 321 322 326 327 326 325 323 321 320 320 319 318 318 320 319 320 320 322 322 323 324 325 327 328 329 330 330 332 332 333 333 333
319 317 316 316 317 319 320 324 324 324 323 324 325 325 325 324 323 321 320 319 319 319 318 318 318 318 318 318 320 321 321 322 324 327 328 329 329 331 332 332 332 333 332
320 319 314 312 313 314 315 316 320 323 322 321 322 324 324 323 322 321 320 318 318 318 318 318 318 320 319 320 320 321 320 321 321 322 324 327 330 332 332 333 333 333 333
320 319 316 315 313 312 312 313 314 317 321 322 321 322 323 323 322 321 320 318 318 318 317 317 318 319 318 319 319 319 319 321 320 321 321 322 325 328 330 331 332 332 333
318 319 316 315 312 312 312 312 312 313 317 320 321 321 321 322 322 321 320 319 318 318 318 319 319 319 318 317 316 316 317 318 320 320 321 321 321 322 324 329 330 331 332
316 316 315 313 312 312 312 311 312 312 313 316 319 320 321 320 320 321 320 320 319 319 319 319 320 319 319 319 318 317 316 316 318 319 320 320 320 320 319 319 321 325 329
317 316 315 313 312 315 315 314 315 314 313 314 317 318 318 320 319 318 319 319 320 319 318 318 319 319 319 317 319 319 318 318 317 318 318 319 318 319 318 317 317 317 317
316 314 312 314 315 314 313 312 313 313 312 312 313 314 316 317 319 319 318 318 319 319 319 317 318 319 317 316 318 317 316 318 317 316 315 317 315 317 318 316 316 316 315

GFSGL_925_thetae_114.txt.gz
Theta_e
344 343 348 350 351 352 352 352 353 354 352 354 354 356 355 355 354 354 354 352 351 351 350 352 350 351 350 349 348 349 349 350 351 347 346 344 348 347 347 348 348 348 348
346 347 346 343 348 348 351 353 352 353 352 352 353 353 355 354 355 355 354 352 351 351 351 352 352 352 354 351 349 349 348 349 349 348 344 346 346 347 348 348 348 347 347
346 346 347 346 345 345 345 347 350 351 352 353 354 353 354 354 354 354 354 353 352 352 351 352 354 353 353 352 352 350 350 349 349 347 346 346 345 346 348 347 346 342 342
345 345 345 345 346 345 345 343 345 347 349 351 352 350 351 353 353 353 353 353 353 353 352 352 351 352 352 352 352 351 348 349 348 349 347 346 346 345 346 345 347 345 345
345 345 345 344 342 343 343 342 341 342 342 342 344 347 350 351 351 352 352 352 353 353 352 350 350 351 350 351 351 349 347 348 347 347 347 347 345 346 346 345 344 344 346
343 344 344 343 341 341 341 341 342 342 341 341 342 342 343 345 347 349 350 352 351 351 351 351 351 349 346 349 349 346 347 347 348 347 346 346 346 347 346 345 345 345 344
340 341 343 342 342 341 341 341 340 340 340 342 341 342 344 346 346 347 347 349 350 350 352 352 350 349 347 349 345 344 344 347 347 348 348 347 346 346 345 346 345 344 343
338 338 340 341 340 340 341 340 339 340 341 340 339 343 343 344 343 342 343 345 350 351 349 350 349 348 346 345 345 344 344 346 346 346 347 348 347 347 347 346 346 345 345
336 336 338 339 338 335 341 341 342 342 339 337 337 338 340 341 339 338 337 337 342 345 344 344 342 341 340 341 341 341 343 345 346 345 344 344 346 345 344 346 345 346 345
332 334 337 339 340 341 341 341 342 342 342 342 341 339 339 343 341 338 335 337 341 342 343 337 338 336 339 340 339 339 341 341 345 346 347 343 343 344 343 343 344 345 344
332 331 335 338 340 341 341 341 341 342 342 341 337 338 338 340 342 339 336 338 340 338 340 338 336 336 334 337 336 336 337 338 338 341 343 345 345 346 344 344 344 345 344
330 331 333 336 337 340 341 341 342 342 341 340 337 332 332 334 337 338 339 338 341 342 338 340 340 339 337 336 335 335 334 334 334 339 343 342 344 343 341 342 344 345 344
330 331 332 332 333 337 338 338 336 339 340 338 338 337 335 332 332 336 337 336 337 337 337 337 337 336 336 336 336 335 335 334 334 334 336 337 339 337 337 337 338 337 341
329 329 331 329 330 332 333 333 332 332 332 332 334 335 335 333 332 331 329 328 326 328 327 328 331 329 330 329 328 331 334 335 335 337 336 335 335 335 334 336 338 339 339
328 328 327 326 328 328 330 332 332 331 330 331 331 331 332 331 326 324 326 326 326 323 326 328 328 328 330 330 331 331 331 332 334 335 335 334 335 337 339 339 338 338 338
326 327 326 327 327 327 326 330 330 329 329 328 329 330 328 327 326 325 324 323 322 322 327 328 328 328 328 327 326 326 327 327 328 329 329 331 332 333 334 336 337 339 339
326 328 327 326 327 328 329 327 330 329 329 330 329 328 328 327 327 326 324 323 322 322 326 327 328 327 327 327 327 326 325 325 325 326 326 327 329 329 328 330 333 335 337
325 323 326 325 324 325 326 326 326 327 327 327 324 324 328 327 327 326 326 324 326 324 327 326 327 327 326 325 324 324 325 325 324 325 328 327 326 329 330 329 329 332 334
322 321 322 322 321 321 322 322 323 323 323 324 328 326 327 327 327 325 324 323 326 326 325 326 326 325 324 323 323 324 325 325 324 325 325 324 325 328 327 330 329 329 329
323 317 317 320 320 320 320 320 320 321 322 322 322 321 325 323 325 326 325 327 327 327 325 325 325 324 322 322 324 325 325 325 325 324 325 325 325 325 325 325 327 329 330
321 322 319 320 319 318 318 318 319 319 320 320 321 322 320 319 321 321 322 324 325 325 325 325 325 325 323 322 323 324 324 323 322 323 322 322 322 323 325 326 326 325 324
321 322 321 320 320 320 319 318 318 317 318 319 320 320 321 322 320 321 321 322 322 323 323 323 323 322 323 322 323 324 323 322 322 322 322 321 322 323 323 322 323 323 325
322 321 321 321 321 320 320 320 321 321 318 316 317 319 319 320 321 321 321 321 321 322 322 322 323 322 322 322 323 323 322 322 322 322 321 321 321 322 321 321 321 320 320
321 322 321 321 321 319 320 321 320 321 320 320 319 318 319 319 320 320 321 321 322 322 322 322 322 322 323 322 322 323 322 322 323 322 321 321 321 321 321 321 321 320 319
321 321 320 320 320 320 320 320 319 319 319 320 320 320 320 320 320 320 321 322 323 323 323 322 322 321 321 322 322 322 322 322 321 320 319 320 320 320 321 321 321 320 319
319 318 318 318 317 317 317 317 317 317 317 318 318 319 319 320 320 320 320 320 320 320 321 322 322 322 321 321 321 321 321 321 319 318 317 319 320 318 319 320 319 319 318

GFSGL_925_thetae_117.txt.gz
Theta_e
347 348 346 348 352 354 353 352 353 355 354 352 347 352 355 355 355 354 355 354 354 354 352 351 350 351 350 350 351 352 352 352 353 349 348 348 348 351 349 348 349 348 349
344 348 350 346 347 351 353 355 352 355 354 352 351 345 347 351 354 354 355 354 354 353 352 351 352 351 351 351 350 351 352 351 351 352 349 348 349 348 347 351 348 348 348
345 346 348 349 348 348 348 351 351 352 353 352 352 349 349 352 354 355 353 354 354 354 352 351 352 352 351 351 351 351 352 352 351 351 350 348 345 348 349 350 349 348 348
345 346 346 348 348 348 348 347 348 348 348 351 352 350 349 347 353 353 354 353 353 353 352 352 353 353 353 352 352 352 351 351 351 350 349 344 345 347 346 347 349 350 347
344 344 345 344 346 348 348 347 346 347 348 348 349 350 350 350 353 355 355 355 353 353 353 353 353 352 353 352 352 352 350 351 350 349 346 345 346 347 346 346 346 344 347
342 343 344 344 346 344 345 344 344 344 344 344 345 344 345 348 350 349 349 353 353 352 353 353 352 352 351 351 350 349 349 349 348 348 348 346 347 347 346 347 346 346 346
339 341 342 344 343 343 343 343 343 344 344 343 344 344 344 345 345 345 346 347 349 352 353 352 352 351 351 352 349 348 347 347 347 349 349 348 348 347 347 348 347 347 346
337 338 340 340 341 343 344 344 344 344 343 343 343 344 344 345 345 345 346 348 350 351 352 352 351 351 351 351 350 351 349 347 347 346 347 347 347 348 347 348 347 347 347
332 335 336 337 339 341 342 343 345 343 344 345 344 344 344 345 344 341 341 343 346 348 350 349 350 349 348 348 349 349 347 345 341 341 341 342 344 342 344 346 347 347 347
330 331 333 337 339 340 342 344 344 344 344 343 343 342 341 343 341 341 339 341 342 343 343 343 344 344 343 341 342 341 343 340 339 341 337 337 334 338 341 342 343 345 346
332 333 334 337 337 338 343 340 343 343 344 342 340 337 338 340 341 342 339 339 341 344 341 341 337 338 337 338 338 337 338 338 338 338 338 340 342 344 346 345 343 345 345
331 334 335 334 338 338 339 338 340 341 341 340 336 334 334 336 339 340 338 336 341 340 337 338 336 335 335 336 335 335 337 336 335 335 336 339 338 337 341 343 342 342 343
331 332 334 333 334 336 336 335 338 337 340 340 339 338 337 336 335 337 337 338 339 341 339 339 339 339 339 338 337 336 336 335 336 337 336 336 335 334 334 335 336 336 336
330 331 331 330 332 333 334 335 334 334 334 335 338 337 336 336 335 332 330 329 331 333 334 335 335 334 333 334 334 334 334 335 336 337 338 338 338 337 335 335 334 335 335
329 329 328 327 328 330 331 333 332 329 329 333 332 333 332 329 325 325 327 327 327 324 329 331 330 332 334 334 334 334 335 336 336 336 336 337 337 337 338 338 339 340 340
328 326 327 327 328 327 328 331 328 328 328 328 329 329 327 326 326 325 324 323 321 322 329 331 331 330 330 330 330 330 330 330 330 330 331 331 331 332 333 334 335 336 338
328 330 326 326 326 326 327 328 333 329 329 329 328 328 328 327 327 326 326 325 324 323 328 328 329 329 329 329 329 329 328 328 328 327 327 327 327 328 330 332 331 331 333
327 324 325 324 323 324 324 325 325 326 329 328 325 324 325 328 327 327 327 326 327 326 328 328 327 328 329 328 327 326 327 326 327 327 327 327 328 330 329 328 330 331 331
322 321 322 322 321 322 322 322 322 323 323 323 328 326 327 326 326 326 326 326 326 325 325 325 327 326 327 327 326 326 327 327 326 326 327 327 327 327 327 328 328 329 330
323 319 320 321 321 320 320 320 320 321 321 322 323 324 327 324 325 327 326 329 327 326 326 326 325 326 327 325 325 325 326 324 325 325 325 325 324 324 324 324 326 328 328
323 323 321 322 321 321 321 320 320 319 319 320 321 321 322 321 319 320 322 323 323 323 323 323 322 324 327 326 325 325 326 325 325 324 324 324 324 324 324 324 324 323 324
323 323 322 322 322 322 321 321 322 322 321 319 318 320 320 321 321 321 321 321 321 322 322 323 323 322 321 322 323 323 322 323 324 324 323 323 323 323 323 323 323 322 322
322 323 322 321 321 321 321 321 322 321 322 322 321 321 320 320 320 321 322 322 322 322 322 323 322 322 323 322 323 323 322 322 322 323 323 323 323 323 323 322 322 322 322
322 322 322 321 321 320 321 320 320 321 320 320 320 321 321 321 321 320 321 323 322 323 324 323 323 323 322 323 323 322 322 323 323 323 324 324 323 323 323 322 322 322 322
320 320 319 319 319 319 318 318 318 318 318 319 319 319 319 320 319 319 320 321 321 321 321 322 322 322 322 322 323 321 322 322 323 323 322 322 322 321 321 321 321 321 321
318 318 317 317 316 315 315 315 315 315 315 316 316 316 317 317 317 316 316 316 316 317 317 317 317 317 319 319 319 321 320 321 321 321 322 320 320 319 319 320 321 321 320

GFSGL_925_thetae_120.txt.gz
Theta_e
347 350 349 347 350 354 354 354 355 357 354 352 352 354 353 353 351 351 353 354 354 355 356 354 353 353 351 350 349 349 350 351 353 352 351 349 349 348 347 350 348 348 348
346 344 346 348 351 350 350 355 353 354 354 353 353 349 347 342 339 346 350 352 354 355 356 355 354 354 354 350 350 350 351 353 354 353 351 351 349 347 348 347 346 349 347
343 343 346 346 346 349 351 350 352 352 351 353 351 343 343 343 337 335 342 349 352 354 354 356 354 353 353 354 351 351 351 351 351 353 351 351 348 349 347 348 348 349 348
340 342 342 342 345 347 348 350 350 350 351 348 347 349 347 337 341 336 336 341 348 352 353 354 354 354 353 353 353 354 353 353 353 353 353 352 350 347 348 349 348 347 347
340 341 343 344 346 347 347 347 348 348 348 348 348 349 349 344 338 336 337 342 336 350 353 354 354 353 353 354 354 354 354 353 353 352 352 351 349 348 347 345 345 347 346
337 340 340 341 344 345 346 347 347 347 345 346 348 349 349 346 341 341 337 338 340 336 350 354 354 353 353 354 353 353 352 353 352 352 351 350 349 347 346 347 345 346 347
335 337 338 341 343 346 346 345 344 344 344 345 346 346 346 347 348 347 344 339 334 348 352 354 354 353 352 352 352 353 351 349 348 348 350 350 346 346 346 347 346 345 346
333 334 334 335 338 339 341 343 342 342 345 345 345 345 344 344 346 346 347 347 347 349 349 351 352 352 350 350 350 350 350 349 348 348 348 347 345 343 343 345 344 346 347
331 333 333 333 336 332 338 339 341 343 343 343 342 343 344 344 345 344 344 345 345 346 348 349 350 352 351 349 347 348 349 348 347 348 346 345 345 343 341 342 341 344 345
330 332 333 332 332 337 335 335 338 340 342 342 342 342 343 343 344 342 340 342 343 344 344 346 346 348 349 348 347 348 346 347 347 344 341 341 340 338 338 338 339 343 347
330 331 332 331 334 337 338 338 339 340 341 341 339 339 339 339 341 342 341 341 342 343 343 344 343 343 342 341 341 342 341 341 339 338 338 338 338 339 338 335 339 339 342
331 331 332 330 333 334 334 333 329 336 338 339 337 335 336 337 339 340 339 336 340 340 341 341 338 337 337 337 337 338 336 336 336 336 336 337 337 337 339 338 336 337 341
332 331 331 331 330 334 335 335 335 335 336 338 339 339 338 336 337 338 339 339 339 340 339 337 336 335 337 336 337 335 336 336 336 335 337 338 336 336 337 337 337 336 339
331 331 330 331 331 330 334 328 329 330 335 335 336 337 337 333 330 331 331 334 335 336 337 337 337 337 336 336 336 336 336 336 336 337 337 337 337 337 337 337 337 337 335
331 332 329 329 330 330 328 330 327 327 329 329 329 329 330 326 324 323 324 325 325 328 332 330 330 333 333 333 333 335 335 335 335 335 337 336 337 337 337 338 337 338 338
330 332 330 328 328 331 329 327 327 327 326 327 328 326 326 325 325 324 323 322 321 323 329 332 334 334 333 335 332 331 332 331 332 331 331 330 330 330 331 332 333 333 335
328 326 326 325 324 327 327 332 331 329 328 327 326 327 328 327 327 327 326 325 325 324 328 330 329 329 330 331 330 329 328 329 328 327 328 328 328 328 328 329 329 332 331
326 325 324 323 322 324 324 324 328 331 331 326 325 324 325 327 327 328 327 324 327 328 327 329 328 329 329 328 327 327 327 327 326 325 326 327 327 327 327 326 329 329 330
320 320 321 322 321 322 321 321 322 323 324 332 325 326 324 322 322 322 323 325 328 326 326 327 328 328 328 327 327 326 327 328 326 326 325 327 326 326 325 325 326 327 327
324 321 321 322 322 321 320 321 321 320 321 321 325 329 323 323 324 325 325 326 329 328 326 326 326 327 327 326 325 326 326 326 324 325 326 326 325 325 324 323 324 325 325
323 324 323 323 323 323 323 322 322 322 320 319 320 322 325 321 321 322 325 329 327 322 323 323 322 326 326 326 325 325 325 324 326 325 325 326 325 325 324 324 325 324 323
323 324 324 322 323 322 322 322 323 323 323 322 322 322 319 319 321 323 322 321 322 323 324 323 324 322 323 324 324 323 323 322 322 324 323 323 324 323 323 323 323 323 323
323 322 322 321 322 321 321 321 321 321 322 321 322 321 322 323 322 322 322 322 325 324 323 323 324 324 323 324 324 323 323 323 322 322 324 324 324 324 323 323 323 323 323
322 320 321 321 320 320 319 320 319 319 319 319 321 321 320 320 321 320 320 319 320 321 321 320 320 320 320 321 322 321 321 322 322 323 323 323 325 324 323 323 322 322 322
321 319 319 319 318 317 316 316 316 316 316 317 317 317 317 317 318 317 317 316 316 316 317 317 317 316 316 316 315 314 316 317 320 321 322 322 322 321 321 322 322 321 322
316 315 315 314 313 313 312 312 313 313 314 314 315 315 316 315 315 315 314 315 314 314 314 313 313 313 313 311 311 310 309 305 306 309 316 319 320 321 320 319 320 319 321

GFSGL_925_thetae_123.txt.gz
Theta_e
339 341 340 345 347 348 350 349 351 351 351 352 351 352 351 352 353 353 352 353 353 353 354 355 354 352 352 351 350 349 350 350 349 349 349 348 349 349 349 348 349 348 348
339 341 340 340 341 345 348 349 350 350 350 351 350 351 351 350 341 343 340 342 349 350 352 353 353 354 353 352 351 350 350 349 349 348 349 350 350 350 349 348 347 349 345
336 338 339 340 338 342 344 345 345 349 349 352 350 349 349 340 340 341 336 332 335 348 350 352 352 353 354 353 352 350 350 349 349 351 351 352 350 348 348 348 347 347 346
333 333 336 338 339 340 340 341 344 346 347 348 349 350 349 344 340 340 331 332 335 337 348 351 352 352 353 353 353 352 350 350 351 352 351 350 350 349 350 348 349 347 346
332 333 336 337 338 340 341 343 346 347 345 346 347 349 346 344 334 331 331 332 335 338 343 349 351 352 352 352 352 353 352 351 352 352 352 352 351 351 350 349 349 347 345
331 334 334 333 336 336 338 344 345 346 345 345 347 348 346 340 339 336 336 337 337 337 339 341 345 343 347 349 350 352 352 352 352 351 351 350 350 350 349 347 346 346 344
331 331 333 333 333 334 336 338 346 346 346 346 346 345 347 347 345 343 340 338 337 340 341 336 335 335 335 335 346 350 350 351 351 351 350 349 349 349 346 345 346 345 345
327 330 331 332 332 332 333 335 342 343 343 344 344 345 346 346 347 346 342 338 337 338 338 331 334 334 333 337 342 349 349 351 351 350 349 347 348 347 345 345 345 344 343
327 329 330 330 331 332 334 334 336 339 340 341 342 342 343 343 343 345 345 340 339 341 342 340 343 338 338 343 346 348 348 347 347 348 348 346 347 346 344 342 342 341 341
327 329 329 328 331 333 336 334 332 337 339 339 341 340 341 342 342 343 343 343 344 344 343 343 344 345 346 346 345 345 346 346 346 346 347 346 346 344 343 342 340 340 340
328 330 329 329 331 332 327 325 328 337 339 339 339 339 339 342 342 341 340 340 341 342 342 343 343 344 344 345 346 346 346 345 345 344 342 341 341 340 339 337 335 336 337
328 330 330 330 330 333 331 331 328 336 338 336 335 334 335 337 338 338 339 338 339 339 340 342 342 341 340 339 340 340 341 341 340 338 336 336 337 337 336 336 339 336 336
328 330 330 330 331 332 332 333 334 333 334 336 337 335 333 332 336 338 338 337 337 339 338 339 337 336 335 335 335 336 336 335 336 336 336 336 336 336 336 336 337 337 336
328 329 330 330 331 331 327 329 331 332 334 335 335 332 325 324 330 331 333 333 335 337 338 337 337 337 338 337 337 337 336 336 336 337 337 337 337 337 337 336 337 337 337
327 327 328 328 331 326 327 326 328 328 330 331 328 326 324 322 321 322 322 323 327 331 332 332 334 335 334 335 335 335 334 334 334 334 335 336 335 336 334 333 335 337 337
327 327 327 324 325 330 327 327 327 327 326 326 325 325 324 324 324 324 324 324 323 325 329 331 332 333 333 334 334 334 336 335 332 329 329 328 328 328 328 329 330 332 332
327 325 324 321 322 322 324 328 327 328 326 325 325 325 326 327 327 327 325 323 325 326 326 331 332 331 329 328 327 329 329 328 327 327 327 326 326 326 326 328 328 328 328
319 320 322 322 321 321 321 325 328 328 327 325 324 323 323 324 324 323 322 323 325 326 326 328 329 328 327 327 327 326 328 326 325 325 325 326 326 326 326 327 326 326 326
321 319 320 321 323 320 320 320 320 320 325 328 325 322 322 321 322 323 323 326 327 327 326 328 328 327 327 326 326 326 326 327 327 326 325 324 325 325 324 324 324 324 324
326 322 323 323 323 322 321 321 321 321 319 326 326 324 321 321 322 321 324 324 326 327 327 324 327 327 327 325 323 324 325 324 325 325 324 325 326 326 325 323 322 323 324
323 324 323 322 323 322 322 322 322 323 323 322 321 327 325 322 322 323 325 326 325 326 326 323 323 326 325 325 324 323 323 324 324 324 325 325 325 325 324 324 324 324 324
323 322 322 321 321 322 321 320 320 321 322 322 322 322 322 321 321 321 321 321 322 322 323 325 323 323 326 327 326 325 325 323 323 324 324 324 324 324 324 323 323 323 323
323 321 320 320 320 318 319 318 317 319 320 321 320 320 320 319 318 317 317 318 318 319 319 317 317 317 319 321 320 320 321 320 321 320 322 323 324 324 323 323 323 323 322
321 319 317 316 314 314 313 314 314 316 317 317 317 317 318 317 316 316 315 315 315 315 314 315 316 314 315 315 315 314 314 313 314 318 316 319 322 323 323 322 321 321 322
313 312 313 311 309 307 307 308 307 309 309 312 314 315 315 315 314 314 313 311 313 312 313 312 311 311 311 311 309 308 308 309 307 305 305 306 312 317 320 321 321 321 321
308 307 306 305 304 305 304 304 304 305 305 305 305 305 304 305 310 311 310 309 307 305 304 305 309 309 309 308 308 307 307 307 306 306 306 304 304 308 314 318 319 320 319

GFSGL_925_thetae_126.txt.gz
Theta_e
330 333 333 335 337 338 338 340 348 348 347 347 347 348 349 349 349 350 350 350 350 350 351 352 351 350 350 350 351 350 349 349 347 347 347 348 348 348 346 347 348 347 348
330 331 332 332 334 335 336 337 338 346 347 348 347 348 348 350 346 346 347 345 342 347 350 349 352 350 350 350 351 350 349 349 348 347 348 348 348 348 348 349 349 349 349
329 330 331 333 335 336 337 339 339 340 344 344 343 346 348 347 342 337 334 339 338 340 338 336 347 350 350 351 352 350 350 349 348 348 348 348 348 348 350 349 348 348 348
329 330 331 332 334 332 334 336 338 341 341 341 340 341 347 346 342 335 338 333 333 338 332 337 335 347 349 351 351 351 351 350 349 348 348 348 349 350 350 349 349 348 348
330 329 330 331 333 332 330 332 335 336 340 342 344 345 345 346 345 341 339 336 332 331 331 333 336 340 347 349 351 351 351 350 349 349 349 349 349 349 349 349 349 349 347
328 327 329 330 331 331 330 331 332 334 338 344 344 345 345 346 346 344 342 336 334 332 336 336 338 343 348 350 351 352 351 350 349 349 349 349 349 349 349 349 349 346 344
328 328 328 329 328 329 330 330 332 334 339 345 345 345 346 346 346 346 340 334 332 334 335 336 338 337 338 343 348 349 350 351 351 350 350 350 349 349 347 348 346 345 345
328 328 327 327 328 329 330 332 330 334 338 341 344 344 345 345 344 343 339 335 334 334 336 337 337 338 338 337 338 336 337 342 348 351 351 349 348 348 347 346 346 345 344
325 327 328 327 327 330 328 329 332 334 336 338 340 342 342 343 344 343 343 340 338 337 338 339 338 338 335 335 336 337 339 342 342 346 347 347 346 346 345 346 344 342 340
320 326 329 329 329 329 329 330 330 332 335 338 339 340 341 341 341 342 342 341 338 338 338 338 340 341 341 343 343 340 342 342 344 346 346 347 347 345 346 345 343 341 340
323 326 329 330 330 330 330 331 330 335 337 336 337 337 339 340 339 341 340 340 341 341 341 342 342 343 344 345 344 346 346 346 345 345 345 345 344 344 344 343 342 341 340
324 327 328 330 330 330 330 331 332 333 335 334 334 333 334 337 338 338 338 339 339 340 340 340 340 341 341 341 341 343 343 344 344 343 341 340 340 340 340 339 339 338 336
325 327 327 328 331 327 329 331 332 332 332 332 332 331 331 332 336 337 337 336 337 338 339 339 339 338 338 338 338 339 339 339 338 337 336 335 335 335 335 336 337 337 338
325 326 326 326 329 328 326 326 327 330 332 331 325 325 324 327 331 331 331 335 337 337 337 335 334 335 336 336 335 335 335 335 335 335 335 337 337 337 337 337 337 336 336
326 324 326 324 328 325 326 326 326 327 326 326 323 321 321 320 321 321 322 327 330 331 332 333 334 334 334 335 334 335 335 335 335 335 335 336 334 335 333 331 333 336 336
326 324 322 321 322 329 326 326 326 326 325 325 324 324 324 325 325 325 324 324 324 327 329 331 332 333 333 333 332 334 334 333 330 330 329 328 328 327 327 327 329 330 331
322 319 320 322 320 325 328 327 327 326 324 324 324 325 326 326 325 323 322 324 326 327 330 332 332 332 333 329 330 331 328 327 326 326 325 326 325 325 326 326 325 326 327
325 322 321 322 321 320 320 322 326 327 326 324 322 322 323 322 322 322 323 325 326 326 329 328 327 327 327 326 327 327 326 325 325 324 325 325 325 325 325 325 325 325 325
325 324 322 322 321 320 320 320 321 320 326 327 322 321 321 322 322 322 323 324 325 327 327 328 327 326 326 323 325 326 326 327 326 325 324 324 325 325 324 323 323 323 323
325 324 322 322 322 321 321 321 322 322 320 326 324 323 322 323 324 323 323 323 324 325 327 325 327 327 326 324 323 322 324 325 325 324 324 324 324 325 325 324 322 322 323
323 322 322 321 321 321 320 319 321 321 321 321 323 322 322 321 320 320 320 320 320 322 324 324 326 327 326 325 323 323 323 323 324 323 323 323 325 325 325 325 323 323 323
321 319 318 317 318 316 315 320 321 321 321 321 320 319 318 317 317 317 316 316 317 318 317 318 321 322 323 325 325 324 323 321 320 320 323 323 324 323 323 323 323 323 322
319 315 314 312 311 312 316 316 319 318 319 319 318 317 317 317 316 316 315 315 314 314 314 314 315 316 317 318 318 316 316 315 310 312 314 318 320 321 322 323 322 322 322
313 311 308 307 306 306 306 308 309 314 314 315 316 315 315 315 314 313 311 309 310 311 311 311 311 312 312 312 312 311 310 308 309 305 306 305 305 307 313 318 320 321 321
306 305 305 304 304 304 304 304 304 305 304 304 304 304 310 313 311 310 309 307 305 304 303 303 305 309 309 309 309 308 307 307 306 306 305 304 304 304 304 307 314 316 319
303 304 303 303 303 304 304 304 304 304 304 304 304 304 304 304 305 306 306 306 305 305 305 305 305 305 307 307 306 305 304 304 303 303 302 301 301 301 302 302 303 307 311